Location: Gälforsberget
(66.6500°N, 22.4167°E)
Time: 18:20:56
(UTC+00:00)

Cosmos 2298 Rocket - Pass Details

Date: 11 April 2026
Orbit: 772 x 782 km, 74.0° (Epoch: 16 May)

Event Time Altitude Azimuth Distance (km) Brightness Sun altitude
Exits shadow 23:44:20 - 243° (WSW) 2,396 6.1 -13.6°
Reaches altitude 10° 23:44:29 10° 244° (WSW) 2,336 6.1 -13.6°
Maximum altitude 23:49:45 62° 325° (NW) 884 4.5 -13.4°
Drops below altitude 10° 23:55:04 10° 46° (NE) 2,349 7.6 -13.2°
Sets 23:57:30 0° 50° (NE) 3,281 8.4 -13.1°
